Location: Linz
(48.3300°N, 14.3000°E)
Time: 18:55:43
(UTC+01:00)

ISS - Pass Details

Date: 15 November 2017
Orbit: 402 x 407 km, 51.6° (Epoch: 19 November)

Event Time Altitude Azimuth Distance (km) Brightness Sun altitude
Exits shadow 04:55:28 45° 133° (SE) 557 -2.9 -22.3°
Drops below altitude 10° 04:57:52 10° 121° (ESE) 1,452 -0.1 -21.9°
Sets 04:59:57 0° 119° (ESE) 2,308 1.1 -21.5°
